Hourly Data Report for October 20, 2016

All times are specified in Local Standard Time (LST). Add 1 hour to adjust for Daylight Saving Time where and when it is observed.

GJOA HAVEN A
NUNAVUT

68°38'08.000" N
95°51'01.000" W
46.90 m
2302337
71597
YHK

Download Data

Hourly Data (October 2016)
Hourly Data Report for October 20, 2016
Temp Definition
°C
Dew Point Temp Definition
°C
Rel Hum Definition
%
Wind Dir Definition
10's deg

Wind Spd Definition
km/h
Visibility Definition
km
Stn Press Definition
kPa
Hmdx Definition


Wind Chill Definition


Weather Definition


TIME
00:00 Legend Double Dagger -15.8 -17.2 89 31 28 16.1 100.90   -27 LegendNANA
01:00 Legend Double Dagger -15.7 -17.0 90 31 30 12.9 100.95   -27 Snow
02:00 Legend Double Dagger -15.5 -16.8 90 30 24 4.8 100.99   -26 Snow
03:00 Legend Double Dagger -14.9 -16.1 91 27 15 16.1 101.02   -23 LegendNANA
04:00 Legend Double Dagger -14.0 -15.2 91 27 21 16.1 100.99   -23 LegendNANA
05:00 Legend Double Dagger -15.6 -16.9 90 29 21 16.1 100.98   -25 LegendNANA
06:00 Legend Double Dagger -15.6 -16.8 91 29 18 16.1 100.96   -24 LegendNANA
07:00 Legend Double Dagger -12.1 -13.0 93 28 18 16.1 100.94   -20 LegendNANA
08:00 Legend Double Dagger -11.3 -12.2 93 28 17 16.1 100.93   -19 LegendNANA
09:00 Legend Double Dagger -10.4 -11.2 94 28 24 16.1 100.94   -19 Snow
10:00 Legend Double Dagger -9.2 -9.9 95 30 22 11.3 100.96   -17 Snow
11:00 Legend Double Dagger -11.2 -12.1 93 32 22 16.1 100.99   -20 LegendNANA
12:00 Legend Double Dagger -11.8 -12.9 92 31 21 16.1 101.01   -20 LegendNANA
13:00 Legend Double Dagger -12.6 -13.6 92 32 21 16.1 101.02   -21 LegendNANA
14:00 Legend Double Dagger -13.5 -14.7 91 33 21 16.1 101.06   -22 LegendNANA
15:00 Legend Double Dagger -13.8 -15.0 91 34 21 16.1 101.09   -23 LegendNANA
16:00 Legend Double Dagger -14.7 -16.0 90 34 18 16.1 101.13   -23 LegendNANA
17:00 Legend Double Dagger -14.3 -15.7 89 34 17 16.1 101.15   -23 LegendNANA
18:00 Legend Double Dagger -14.0 -15.4 89 33 17 16.1 101.15   -22 LegendNANA
19:00 Legend Double Dagger -14.3 -16.2 86 34 17 16.1 101.18   -23 LegendNANA
20:00 Legend Double Dagger -13.7 -15.6 86 34 13 16.1 101.18   -21 LegendNANA
21:00 Legend Double Dagger -12.3 -14.2 86 34 8 16.1 101.18   -17 LegendNANA
22:00 Legend Double Dagger -12.8 -14.6 87 33 8 16.1 101.20   -18 LegendNANA
23:00 Legend Double Dagger -12.6 -14.1 89 33 9 16.1 101.22   -18 LegendNANA

Notes on Data Quality.

Legend

  • E = Estimated
  • M = Missing
  • NA = Not Available
  • ‡ = Partner data that is not subject to review by the National Climate Archives
Date modified: